Wind_Speed
64 64 64 64 63 63 64 65 66 67 67 68 68 69 71 73 75 75 74 74 75 74 74 72 70 69 72 76 77 76 75 75 75 73 72 71 70 68 65 64 64 66
66 66 66 66 66 65 65 65 66 67 68 69 69 69 70 71 72 73 73 74 75 75 75 76 75 73 72 74 77 78 77 77 77 77 77 76 76 75 73 70 68 67
68 68 69 68 68 68 68 67 67 67 68 69 70 69 69 70 71 71 70 71 73 74 74 75 77 78 78 76 76 77 78 77 78 78 78 78 78 77 76 74 72 71
70 70 71 71 70 70 70 70 69 69 69 69 70 70 70 70 70 71 70 69 70 72 73 73 74 76 80 81 80 78 77 77 77 77 77 77 77 76 74 73 73 73
73 73 73 73 73 73 72 72 72 72 71 71 71 71 72 71 71 71 71 70 69 70 71 72 72 72 75 79 82 82 81 79 78 76 75 75 75 74 73 72 73 73
75 75 75 75 75 75 75 75 75 74 74 74 73 73 73 73 73 73 73 72 71 70 71 71 71 71 71 73 77 80 82 82 81 80 78 76 74 74 72 71 72 73
78 77 77 77 77 77 78 77 77 77 77 76 76 76 75 75 75 75 75 75 74 73 72 72 72 71 71 71 73 75 78 80 81 81 81 80 78 76 75 72 71 71
79 79 79 80 80 80 80 80 80 79 79 79 79 78 78 78 77 77 77 77 77 76 75 74 74 73 73 72 72 72 74 76 78 79 80 80 80 79 78 77 74 72
79 80 80 81 81 82 82 82 82 82 82 82 82 81 81 80 80 80 79 79 79 79 78 77 76 76 75 74 73 72 73 74 74 76 77 78 79 79 79 79 78 76
80 81 81 82 82 83 84 84 84 84 84 84 84 84 84 83 83 83 82 82 82 81 81 80 80 79 78 77 76 75 74 74 74 74 74 75 76 77 78 78 78 78
82 82 82 83 83 83 84 85 85 86 86 86 86 86 86 86 85 85 85 84 84 84 84 83 83 82 81 80 79 78 77 76 75 75 74 74 75 75 76 76 76 76
83 84 84 84 84 85 85 85 86 86 87 87 88 88 88 88 88 88 87 87 87 86 86 86 86 85 84 83 82 81 80 79 78 77 76 76 75 75 75 76 76 76
84 85 86 86 86 86 87 87 87 87 87 88 88 89 89 90 90 90 90 90 89 89 89 88 88 88 87 86 86 84 83 82 81 80 79 78 78 77 76 76 76 76
85 86 86 87 88 88 88 89 89 89 89 89 89 89 90 90 90 91 91 92 92 91 91 91 90 90 89 89 88 88 86 85 84 82 81 81 80 79 79 78 77 77
86 87 88 88 89 89 90 90 90 91 91 91 91 91 91 91 91 91 91 92 92 93 93 93 93 92 92 91 91 90 89 88 87 86 84 83 82 82 81 80 80 79
88 88 89 89 90 90 91 91 92 92 92 92 92 92 92 92 92 92 92 92 92 93 93 93 94 94 94 94 93 93 92 91 90 88 87 86 85 84 83 83 82 81
90 90 90 91 91 92 92 92 93 93 93 94 94 94 94 94 94 93 94 94 93 93 94 94 94 95 95 95 95 95 94 93 92 91 90 89 87 86 85 85 84 83
93 94 94 94 93 93 94 94 94 95 95 95 95 95 95 96 96 95 95 95 95 95 95 95 95 95 96 95 95 95 96 95 94 93 92 91 90 89 87 86 86 85
96 96 96 97 97 97 96 96 96 96 96 97 97 97 97 97 97 97 97 97 97 96 96 96 96 97 97 97 97 96 96 96 95 94 93 93 92 91 90 89 87 87
97 98 98 99 99 99 99 99 99 99 99 99 98 99 99 99 99 99 99 99 99 98 98 97 98 98 98 98 98 98 98 98 97 95 94 93 93 92 92 91 90 89
99 99 100 101 101 101 101 102 102 102 102 101 101 101 101 101 101 101 101 101 101 100 100 99 99 99 100 100 100 100 100 100 99 98 96 95 94 93 92 92 91 91
98 99 100 101 102 103 103 103 104 104 104 104 104 104 103 103 103 103 103 103 103 103 102 101 101 101 101 101 101 102 101 101 100 100 99 98 96 95 94 93 92 92
93 95 97 99 100 101 102 104 104 105 105 105 105 106 106 106 106 105 105 105 105 105 104 103 103 103 103 103 103 104 103 103 102 101 101 100 99 98 96 95 94 93
86 88 90 92 95 97 99 101 102 104 105 105 106 106 107 107 107 108 108 108 107 107 107 106 106 106 106 106 105 106 105 105 104 103 103 102 101 100 99 98 96 95
79 81 83 85 87 90 92 95 97 99 101 102 104 105 106 106 107 108 108 109 109 109 109 109 108 108 108 108 108 108 108 107 107 106 105 104 103 102 101 100 99 98
71 73 75 77 79 81 83 86 89 91 94 96 99 101 103 104 105 106 107 108 109 110 111 111 111 110 110 110 110 110 110 109 109 108 107 107 106 105 104 102 101 100
Wind_Direction
252 253 253 254 254 254 254 254 255 255 256 257 257 257 257 257 257 258 257 255 253 252 251 251 251 250 249 250 249 248 246 246 246 247 247 247 247 249 250 251 252 250
251 252 253 253 254 254 254 254 254 254 255 256 256 256 256 256 257 258 258 257 256 254 253 252 251 251 250 250 250 250 250 249 248 248 249 250 250 251 252 253 253 252
251 251 252 253 253 253 254 254 254 254 254 255 255 256 256 256 256 257 257 257 257 257 256 255 253 252 252 251 250 250 251 251 250 250 251 251 252 254 254 255 254 253
251 251 251 252 252 253 253 254 254 254 254 254 255 256 257 256 256 257 257 257 256 257 257 257 256 255 254 254 253 252 252 252 252 252 252 252 253 253 254 253 254 254
251 251 251 251 251 252 253 253 253 254 254 254 255 255 256 257 257 257 258 259 258 257 257 257 257 257 256 256 256 256 255 254 254 253 253 253 252 252 252 251 250 251
252 251 251 251 251 251 252 252 253 253 254 254 255 255 255 257 258 258 259 259 260 259 259 258 258 258 258 257 257 257 258 257 257 256 256 255 254 253 252 251 249 248
253 252 252 252 252 252 252 252 252 253 253 254 254 255 255 256 256 258 258 259 260 261 261 260 260 260 259 258 258 258 258 259 259 258 258 258 257 256 255 254 252 249
253 253 253 253 252 252 252 252 252 253 253 253 254 254 255 255 256 256 257 258 259 260 261 261 261 261 261 261 260 259 259 259 260 260 260 260 259 259 258 257 256 254
253 253 253 253 253 253 253 253 253 253 253 253 254 254 254 255 255 256 256 257 258 259 260 260 261 261 262 262 262 261 260 260 260 260 261 261 261 261 260 260 259 258
253 253 253 253 253 253 253 253 253 253 253 253 254 254 254 254 255 255 256 256 257 258 259 260 260 260 261 261 262 262 262 261 261 262 261 261 262 262 262 262 262 261
254 253 253 253 253 253 253 253 253 253 253 253 253 254 254 255 255 255 255 256 256 257 257 258 259 260 260 260 261 261 261 262 262 262 262 262 262 262 263 264 264 263
254 254 254 254 253 253 253 253 253 253 253 253 253 253 254 254 255 255 255 255 256 256 257 257 258 258 259 260 260 260 260 261 261 261 262 262 262 262 263 263 264 265
255 254 254 254 254 254 254 254 253 253 253 253 253 253 253 254 254 255 255 255 256 256 256 257 257 257 258 259 259 260 260 260 260 260 260 261 261 262 262 262 263 264
255 254 254 254 254 254 254 254 254 254 254 254 253 253 253 253 254 254 254 255 255 256 256 256 257 257 257 258 258 259 259 260 260 260 260 260 260 261 261 261 262 262
255 255 254 254 254 254 254 254 254 254 254 254 254 254 254 254 253 253 254 254 255 255 256 256 256 257 257 257 258 258 259 259 259 260 259 259 259 260 260 260 260 261
255 255 255 254 254 254 254 254 254 254 254 254 254 254 254 254 254 254 254 254 254 254 255 255 256 256 256 257 257 257 258 258 259 259 259 259 259 259 259 260 260 260
255 254 254 254 254 254 254 254 254 254 254 254 254 254 254 254 254 254 254 254 254 254 254 255 255 256 256 256 256 257 257 257 257 258 259 259 259 259 259 259 259 259
256 255 255 254 254 254 254 254 254 254 254 254 254 254 254 254 254 254 254 254 254 254 254 255 255 255 255 256 256 256 256 256 257 257 257 258 259 259 259 259 259 259
256 256 255 255 255 254 254 253 253 254 254 254 254 254 254 255 255 255 254 254 254 254 254 255 255 255 255 255 256 256 256 256 256 256 256 257 257 258 258 258 258 258
257 256 256 255 255 255 254 254 253 253 253 253 253 254 254 254 255 255 255 255 255 254 254 254 255 255 255 255 255 256 256 256 256 256 256 256 256 257 257 258 258 258
257 257 256 256 255 255 255 254 254 254 253 253 253 253 253 254 254 254 254 255 255 255 254 254 254 254 255 255 255 255 256 256 256 256 256 256 256 256 256 257 257 257
258 258 257 257 256 256 255 255 254 254 254 253 253 253 253 253 253 253 254 254 254 254 254 254 255 255 255 254 254 255 255 255 255 256 256 256 256 256 256 256 256 256
260 260 259 259 258 257 257 256 256 255 255 254 254 254 253 253 253 253 253 253 253 254 254 254 254 254 255 255 255 254 254 254 255 255 255 256 256 256 256 255 255 255
263 262 261 261 260 259 259 258 257 257 256 256 255 255 254 254 253 253 253 253 253 253 253 253 254 254 254 254 255 255 255 254 254 254 254 254 255 255 255 255 255 255
265 264 264 263 262 261 261 260 260 259 258 258 257 256 256 255 255 254 254 254 253 253 253 253 253 253 254 254 254 255 255 255 254 254 254 254 254 254 254 255 255 255
267 266 265 264 264 263 263 262 261 261 260 260 259 258 258 257 257 256 256 255 255 254 254 253 253 253 253 254 254 254 254 254 254 254 254 254 254 253 254 254 254 254
Height
5617 5618 5618 5619 5620 5621 5621 5622 5623 5624 5624 5626 5627 5629 5630 5632 5634 5635 5637 5640 5643 5645 5647 5648 5650 5652 5653 5654 5655 5657 5659 5661 5662 5664 5665 5666 5667 5669 5671 5672 5673 5674
5609 5610 5611 5612 5612 5613 5614 5615 5616 5616 5617 5618 5619 5621 5622 5624 5625 5627 5628 5630 5632 5635 5637 5639 5641 5642 5644 5645 5646 5647 5649 5651 5653 5655 5656 5658 5659 5661 5662 5664 5666 5667
5601 5602 5603 5604 5605 5605 5606 5607 5608 5609 5610 5610 5611 5612 5614 5616 5617 5618 5619 5621 5622 5624 5627 5629 5631 5632 5634 5636 5637 5638 5640 5642 5643 5645 5647 5649 5650 5652 5654 5655 5657 5658
5593 5594 5595 5596 5596 5597 5598 5599 5600 5601 5602 5603 5603 5604 5605 5607 5608 5609 5610 5612 5614 5615 5617 5619 5620 5622 5624 5625 5627 5629 5631 5633 5634 5636 5637 5639 5641 5643 5645 5646 5648 5649
5584 5585 5586 5587 5588 5589 5590 5591 5591 5592 5593 5594 5595 5596 5596 5597 5599 5600 5601 5602 5604 5606 5608 5609 5611 5612 5614 5615 5617 5619 5621 5623 5624 5626 5627 5629 5631 5633 5635 5637 5638 5640
5574 5575 5576 5577 5578 5579 5581 5582 5582 5584 5584 5585 5586 5587 5588 5589 5590 5591 5592 5593 5594 5596 5598 5600 5601 5603 5605 5606 5607 5609 5610 5612 5614 5616 5618 5619 5621 5623 5625 5627 5629 5631
5564 5565 5567 5568 5569 5570 5571 5572 5573 5574 5575 5576 5578 5578 5580 5581 5581 5582 5583 5584 5585 5586 5588 5589 5591 5593 5595 5597 5598 5599 5601 5602 5604 5606 5608 5609 5612 5613 5615 5617 5619 5621
5553 5554 5556 5557 5559 5560 5561 5562 5563 5565 5566 5567 5568 5569 5570 5572 5573 5574 5575 5576 5576 5577 5578 5580 5581 5583 5584 5586 5588 5590 5591 5593 5594 5596 5597 5599 5601 5603 5605 5607 5609 5611
5542 5544 5545 5546 5548 5549 5550 5552 5553 5554 5556 5557 5558 5559 5561 5562 5563 5565 5566 5567 5568 5569 5570 5571 5572 5573 5575 5576 5578 5580 5582 5583 5585 5586 5587 5589 5590 5592 5594 5597 5599 5601
5531 5532 5534 5535 5536 5538 5539 5540 5542 5544 5545 5546 5548 5549 5550 5552 5554 5555 5556 5558 5559 5560 5561 5561 5563 5564 5565 5567 5568 5570 5572 5573 5575 5577 5578 5579 5580 5582 5583 5586 5588 5590
5520 5521 5522 5524 5525 5526 5527 5529 5530 5532 5534 5535 5537 5538 5539 5541 5543 5544 5546 5547 5549 5550 5551 5552 5553 5554 5556 5557 5559 5560 5562 5564 5565 5567 5569 5570 5572 5573 5574 5575 5577 5579
5509 5510 5511 5512 5513 5514 5515 5517 5518 5520 5522 5523 5525 5527 5528 5530 5531 5533 5535 5536 5538 5539 5541 5542 5543 5545 5546 5547 5549 5551 5552 5554 5556 5558 5559 5561 5563 5564 5566 5567 5568 5569
5497 5498 5499 5500 5501 5503 5504 5505 5506 5508 5510 5511 5513 5515 5517 5518 5520 5521 5523 5524 5526 5528 5529 5531 5532 5534 5536 5537 5538 5540 5542 5544 5546 5548 5549 5551 5553 5554 5556 5558 5559 5560
5485 5486 5487 5488 5489 5491 5492 5493 5494 5496 5497 5499 5501 5503 5505 5506 5508 5509 5511 5512 5514 5516 5517 5519 5520 5522 5524 5526 5527 5529 5531 5533 5535 5537 5539 5541 5543 5544 5546 5548 5550 5551
5473 5474 5475 5476 5477 5478 5479 5481 5482 5484 5485 5487 5488 5490 5492 5494 5496 5497 5499 5501 5502 5503 5505 5506 5507 5509 5511 5514 5516 5518 5520 5522 5524 5526 5528 5531 5532 5534 5536 5538 5540 5541
5460 5462 5463 5464 5465 5466 5467 5468 5470 5471 5473 5474 5476 5478 5479 5481 5483 5485 5487 5488 5490 5491 5493 5494 5495 5496 5498 5501 5503 5505 5508 5510 5513 5515 5517 5519 5522 5524 5525 5527 5529 5531
5447 5448 5449 5450 5452 5453 5454 5456 5457 5459 5460 5462 5463 5465 5467 5468 5470 5472 5474 5476 5478 5479 5481 5482 5482 5483 5485 5488 5490 5492 5495 5498 5501 5504 5505 5507 5510 5512 5514 5516 5518 5520
5433 5434 5435 5436 5438 5440 5441 5443 5444 5446 5447 5449 5451 5452 5454 5455 5457 5459 5461 5463 5465 5467 5468 5470 5470 5471 5473 5475 5477 5479 5481 5485 5489 5492 5494 5495 5497 5499 5502 5504 5506 5508
5418 5420 5421 5422 5424 5425 5427 5429 5431 5433 5434 5436 5438 5439 5441 5442 5444 5445 5447 5449 5451 5454 5456 5457 5458 5458 5460 5462 5464 5466 5468 5471 5476 5479 5481 5484 5485 5487 5489 5492 5493 5496
5403 5405 5406 5407 5409 5410 5412 5414 5416 5418 5420 5422 5424 5426 5427 5429 5430 5432 5433 5435 5437 5440 5442 5444 5445 5445 5446 5448 5451 5452 5454 5458 5462 5466 5469 5471 5473 5475 5477 5479 5481 5484
5388 5389 5390 5392 5393 5395 5397 5399 5401 5403 5405 5407 5410 5411 5413 5415 5416 5418 5419 5421 5423 5425 5428 5431 5431 5431 5433 5435 5437 5439 5441 5444 5449 5452 5456 5459 5461 5463 5465 5467 5469 5471
5372 5374 5375 5376 5377 5379 5381 5383 5385 5387 5389 5392 5394 5396 5398 5400 5402 5403 5405 5407 5408 5411 5414 5417 5417 5417 5418 5420 5422 5424 5427 5431 5435 5439 5442 5445 5448 5450 5452 5455 5457 5459
5358 5359 5360 5361 5362 5363 5365 5367 5369 5370 5373 5376 5378 5380 5382 5384 5386 5388 5390 5392 5394 5396 5399 5402 5403 5402 5403 5405 5407 5409 5413 5417 5421 5425 5429 5432 5435 5437 5439 5442 5445 5447
5345 5346 5346 5347 5347 5349 5350 5351 5353 5354 5356 5359 5361 5363 5365 5367 5369 5372 5374 5376 5379 5381 5383 5386 5388 5388 5388 5390 5392 5394 5397 5402 5406 5411 5415 5418 5421 5423 5425 5428 5432 5434
5332 5332 5333 5333 5334 5335 5336 5336 5337 5339 5341 5342 5344 5347 5349 5351 5353 5356 5358 5360 5362 5364 5367 5370 5373 5374 5373 5374 5377 5379 5381 5385 5391 5395 5399 5403 5406 5409 5412 5415 5418 5421
5320 5320 5320 5321 5321 5322 5323 5323 5323 5325 5326 5327 5329 5331 5333 5335 5337 5340 5343 5344 5345 5347 5350 5352 5355 5359 5359 5359 5361 5363 5365 5369 5374 5379 5383 5387 5390 5394 5398 5402 5405 5408